Regional Weather Roundup
Issued by NWS

Home | Current Version | Previous Version | Text Only | Print | Product List | Glossary Off
Versions: 1 2 3 4 5 6 7 8 9 10 11 12 13 14 15 16 17 18 19 20 21 22 23 24 25 26 27 28 29 30 31 32 33 34 35 36 37 38 39 40 41 42 43 44 45 46 47 48 49 50

000
ASUS45 KCYS 311410
RWRWY

WYOMING REGIONAL WEATHER ROUNDUP
NATIONAL WEATHER SERVICE CHEYENNE WY
800 AM MDT SUN AUG 31 2014

NOTE:  "FAIR" INDICATES FEW OR NO CLOUDS BELOW 12,000 FEET
WITH NO SIGNIFICANT WEATHER AND/OR OBSTRUCTIONS TO VISIBILITY.

WYZ001-311500-
YELLOWSTONE NATIONAL PARK

CITY           SKY/WX    TMP DP  RH WIND       PRES   REMARKS
LK YELLOWSTONE   N/A     39  37  92 CALM      30.06R
W YELLOWSTONE  NOT AVBL

$$
WYZ002>013-054>058-071-098>099-311500-
NORTHERN WYOMING

CITY           SKY/WX    TMP DP  RH WIND       PRES   REMARKS
JACKSON        CLOUDY    45  45 100 N9        29.99R
CODY           CLOUDY    52  46  82 NW5       29.91R
GREYBULL       CLOUDY    56  54  93 NW7       29.86R
WORLAND        CLOUDY    55  53  93 S3        29.87R
SHERIDAN       CLOUDY    56  51  84 CALM      29.84R
BUFFALO        CLOUDY    54  48  80 W7        29.87R
GILLETTE       CLOUDY    56  53  90 CALM      29.84R
HULETT         CLOUDY    54  52  94 MISG      29.84
NEWCASTLE      FAIR      55  52  88 CALM      29.84

$$
WYZ014>020-022>026-101>103-311500-
CENTRAL WYOMING

CITY           SKY/WX    TMP DP  RH WIND       PRES   REMARKS
BIG PINEY      MOSUNNY   46  41  82 CALM      30.03R
PINEDALE       MOSUNNY   45  45 100 E3        30.04R
DUBOIS         CLOUDY    45  37  76 NW15      29.97R
LANDER         CLOUDY    53  44  71 CALM      29.89R
RIVERTON       CLOUDY    52  48  86 W3        29.90R
CASPER         CLOUDY    52  46  80 N3        29.88F
DOUGLAS        LGT RAIN  54  52  93 S14       29.92S

$$
WYZ021-027>030-104>119-311500-
SOUTHERN WYOMING

CITY           SKY/WX    TMP DP  RH WIND       PRES   REMARKS
EVANSTON       LGT RAIN  48  45  89 S12       30.08S
KEMMERER       PTSUNNY   45  43  93 SW14      30.06R
FORT BRIDGER     N/A     48  46  93 S10       30.10F
ROCK SPRINGS   LGT RAIN  47  41  80 W16G25    30.09R
DIXON          CLOUDY    53  50  89 E5        30.05F
RAWLINS        RAIN      50  46  86 W13       30.05R FOG
SARATOGA       CLOUDY    52  46  82 SW9       30.05R
LARAMIE        CLOUDY    49  46  90 S18       30.01F
CHEYENNE       CLOUDY    56  47  71 NW16G25   30.01R
TORRINGTON     CLOUDY    56  55  97 SW7       29.92R
PINE BLUFFS    RAIN      54  52  94 N12       29.97S

$$



USA.gov is the U.S. government's official web portal to all federal, state and local government web resources and services.